Time,TemperatureF,DewpointF,PressureIn,WindDirection,WindDirectionDegrees,WindSpeedMPH,WindSpeedGustMPH,Humidity,HourlyPrecipIn,Conditions,Clouds,dailyrainin,SoftwareType,DateUTC
2013-03-23 00:04:00,50.7,45.7,29.98,West,270,0.0,-999.0,82,0.03,,,5.02,,2013-03-23 07:04:00,
2013-03-23 00:09:00,50.5,45.8,29.97,West,270,0.0,-999.0,83,0.03,,,5.02,,2013-03-23 07:09:00,
2013-03-23 00:14:00,50.4,45.8,29.98,West,270,0.0,-999.0,84,0.03,,,5.02,,2013-03-23 07:14:00,
2013-03-23 00:20:00,50.2,45.7,29.97,West,270,0.0,-999.0,84,0.03,,,5.02,,2013-03-23 07:20:00,
2013-03-23 00:25:00,49.8,45.4,29.98,West,270,0.0,-999.0,84,0.15,,,5.14,,2013-03-23 07:25:00,
2013-03-23 00:30:00,50.2,45.5,29.98,West,270,0.0,-999.0,84,0.15,,,5.14,,2013-03-23 07:30:00,
2013-03-23 00:35:00,50.5,45.6,29.97,West,270,0.0,-999.0,83,0.15,,,5.14,,2013-03-23 07:35:00,
2013-03-23 00:40:00,50.4,45.5,29.98,West,270,0.0,-999.0,83,0.15,,,5.14,,2013-03-23 07:40:00,
2013-03-23 00:45:00,50.0,45.3,29.97,West,270,0.0,-999.0,83,0.15,,,5.14,,2013-03-23 07:45:00,
2013-03-23 00:50:00,50.2,45.5,29.98,West,270,0.0,-999.0,83,0.15,,,5.14,,2013-03-23 07:50:00,
2013-03-23 00:55:00,50.4,45.2,29.97,West,270,0.0,-999.0,82,0.15,,,5.14,,2013-03-23 07:55:00,
2013-03-23 01:00:00,50.9,45.2,29.98,West,270,0.0,-999.0,80,0.15,,,5.14,,2013-03-23 08:00:00,
2013-03-23 01:05:00,50.7,44.7,29.99,West,270,0.0,-999.0,79,0.15,,,5.14,,2013-03-23 08:05:00,
2013-03-23 01:10:00,50.5,45.1,29.98,West,270,0.0,-999.0,81,0.15,,,5.14,,2013-03-23 08:10:00,
2013-03-23 01:16:00,50.5,44.9,29.98,West,270,0.0,-999.0,81,0.15,,,5.14,,2013-03-23 08:16:00,
2013-03-23 01:21:00,50.9,44.6,29.98,West,270,0.0,-999.0,79,0.15,,,5.14,,2013-03-23 08:21:00,
2013-03-23 01:26:00,50.9,44.4,29.98,West,270,0.0,-999.0,78,0.15,,,5.14,,2013-03-23 08:26:00,
2013-03-23 01:31:00,50.9,44.2,29.98,West,270,0.0,-999.0,77,0.15,,,5.14,,2013-03-23 08:31:00,
2013-03-23 01:36:00,50.9,43.9,29.98,West,270,0.0,-999.0,76,0.15,,,5.14,,2013-03-23 08:36:00,
2013-03-23 01:42:00,50.7,43.9,29.98,West,270,0.0,-999.0,77,0.15,,,5.14,,2013-03-23 08:42:00,
2013-03-23 01:47:00,50.7,43.4,29.98,West,270,0.0,-999.0,75,0.15,,,5.14,,2013-03-23 08:47:00,
2013-03-23 01:52:00,50.7,43.3,29.98,West,270,0.0,-999.0,75,0.15,,,5.14,,2013-03-23 08:52:00,
2013-03-23 01:57:00,50.7,43.4,29.98,West,270,0.0,-999.0,76,0.15,,,5.14,,2013-03-23 08:57:00,
2013-03-23 02:02:00,50.7,43.5,29.98,West,270,0.0,-999.0,76,0.15,,,5.14,,2013-03-23 09:02:00,
2013-03-23 02:07:00,50.7,43.7,29.98,West,270,0.0,-999.0,76,0.15,,,5.14,,2013-03-23 09:07:00,
2013-03-23 02:12:00,50.7,43.5,29.98,West,270,0.0,-999.0,76,0.15,,,5.14,,2013-03-23 09:12:00,
2013-03-23 02:17:00,50.7,43.1,29.99,West,270,0.0,-999.0,75,0.15,,,5.14,,2013-03-23 09:17:00,
2013-03-23 02:22:00,50.5,42.8,29.97,West,270,0.0,-999.0,74,0.15,,,5.14,,2013-03-23 09:22:00,
2013-03-23 02:27:00,50.4,43.3,29.98,West,270,0.0,-999.0,76,0.15,,,5.14,,2013-03-23 09:27:00,
2013-03-23 02:32:00,50.5,43.1,29.98,West,270,0.0,-999.0,75,0.15,,,5.14,,2013-03-23 09:32:00,
2013-03-23 02:37:00,50.5,43.0,29.98,West,270,0.0,-999.0,75,0.15,,,5.14,,2013-03-23 09:37:00,
2013-03-23 02:42:00,50.7,43.3,29.98,West,270,0.0,-999.0,75,0.15,,,5.14,,2013-03-23 09:42:00,
2013-03-23 02:48:00,50.5,43.0,29.98,West,270,0.0,-999.0,75,0.15,,,5.14,,2013-03-23 09:48:00,
2013-03-23 02:53:00,50.4,43.0,29.98,West,270,0.0,-999.0,75,0.15,,,5.14,,2013-03-23 09:53:00,
2013-03-23 02:58:00,50.2,42.9,29.98,West,270,0.0,-999.0,75,0.15,,,5.14,,2013-03-23 09:58:00,
2013-03-23 03:03:00,50.0,42.8,29.97,West,270,0.0,-999.0,76,0.15,,,5.14,,2013-03-23 10:03:00,
2013-03-23 03:08:00,50.0,42.7,29.97,West,270,0.0,-999.0,75,0.15,,,5.14,,2013-03-23 10:08:00,
2013-03-23 03:13:00,50.4,43.3,29.98,West,270,0.0,-999.0,76,0.15,,,5.14,,2013-03-23 10:13:00,
2013-03-23 03:18:00,50.4,43.1,29.97,West,270,0.0,-999.0,76,0.15,,,5.14,,2013-03-23 10:18:00,
2013-03-23 03:23:00,50.4,42.7,29.97,West,270,0.0,-999.0,74,0.15,,,5.14,,2013-03-23 10:23:00,
2013-03-23 03:28:00,50.2,42.5,29.98,West,270,0.0,-999.0,74,0.15,,,5.14,,2013-03-23 10:28:00,
2013-03-23 03:33:00,50.0,42.4,29.97,West,270,0.0,-999.0,75,0.15,,,5.14,,2013-03-23 10:33:00,
2013-03-23 03:38:00,49.6,42.3,29.97,West,270,0.0,-999.0,75,0.15,,,5.14,,2013-03-23 10:38:00,
2013-03-23 03:43:00,49.6,42.3,29.97,West,270,0.0,-999.0,75,0.15,,,5.14,,2013-03-23 10:43:00,
2013-03-23 03:48:00,49.8,42.6,29.97,West,270,0.0,-999.0,76,0.15,,,5.14,,2013-03-23 10:48:00,
2013-03-23 03:53:00,50.4,43.5,29.97,West,270,0.0,-999.0,77,0.15,,,5.14,,2013-03-23 10:53:00,
2013-03-23 03:58:00,50.9,43.7,29.97,West,270,0.0,-999.0,76,0.15,,,5.14,,2013-03-23 10:58:00,
2013-03-23 04:04:00,50.4,42.5,29.98,West,270,0.0,-999.0,74,0.15,,,5.14,,2013-03-23 11:04:00,
2013-03-23 04:09:00,50.2,42.7,29.98,West,270,0.0,-999.0,75,0.15,,,5.14,,2013-03-23 11:09:00,
2013-03-23 04:14:00,50.0,42.7,29.97,West,270,0.0,-999.0,76,0.15,,,5.14,,2013-03-23 11:14:00,
2013-03-23 04:19:00,49.6,42.3,29.97,West,270,0.0,-999.0,75,0.15,,,5.14,,2013-03-23 11:19:00,
2013-03-23 04:24:00,49.3,42.0,29.97,West,270,0.0,-999.0,75,0.15,,,5.14,,2013-03-23 11:24:00,
2013-03-23 04:29:00,49.5,41.7,29.97,West,270,0.0,-999.0,74,0.15,,,5.14,,2013-03-23 11:29:00,
2013-03-23 04:34:00,49.3,41.5,29.97,West,270,0.0,-999.0,74,0.15,,,5.14,,2013-03-23 11:34:00,
2013-03-23 04:39:00,49.1,41.6,29.97,West,270,0.0,-999.0,75,0.15,,,5.14,,2013-03-23 11:39:00,
2013-03-23 04:44:00,49.3,42.3,29.97,West,270,0.0,-999.0,76,0.15,,,5.14,,2013-03-23 11:44:00,
2013-03-23 04:49:00,49.5,41.9,29.97,West,270,0.0,-999.0,75,0.15,,,5.14,,2013-03-23 11:49:00,
2013-03-23 04:54:00,49.5,42.7,29.97,West,270,0.0,-999.0,77,0.15,,,5.14,,2013-03-23 11:54:00,
2013-03-23 04:59:00,49.8,42.8,29.97,West,270,0.0,-999.0,76,0.15,,,5.14,,2013-03-23 11:59:00,
2013-03-23 05:04:00,49.8,41.5,29.96,West,270,0.0,-999.0,73,0.15,,,5.14,,2013-03-23 12:04:00,
2013-03-23 05:10:00,49.1,41.4,29.97,West,270,0.0,-999.0,74,0.15,,,5.14,,2013-03-23 12:10:00,
2013-03-23 05:15:00,48.9,41.4,29.98,West,270,0.0,-999.0,75,0.15,,,5.14,,2013-03-23 12:15:00,
2013-03-23 05:20:00,49.1,41.6,29.97,West,270,0.0,-999.0,75,0.15,,,5.14,,2013-03-23 12:20:00,
2013-03-23 05:25:00,49.1,41.4,29.97,West,270,0.0,-999.0,74,0.15,,,5.14,,2013-03-23 12:25:00,
2013-03-23 05:30:00,49.1,41.8,29.97,West,270,0.0,-999.0,75,0.15,,,5.14,,2013-03-23 12:30:00,
2013-03-23 05:35:00,49.3,41.5,29.97,West,270,0.0,-999.0,74,0.15,,,5.14,,2013-03-23 12:35:00,
2013-03-23 05:40:00,48.9,41.4,29.97,West,270,0.0,-999.0,75,0.15,,,5.14,,2013-03-23 12:40:00,
2013-03-23 05:45:00,49.1,41.8,29.98,West,270,0.0,-999.0,75,0.15,,,5.14,,2013-03-23 12:45:00,
2013-03-23 05:50:00,49.1,42.0,29.98,West,270,0.0,-999.0,76,0.15,,,5.14,,2013-03-23 12:50:00,
2013-03-23 05:55:00,48.9,41.4,29.98,West,270,0.0,-999.0,75,0.15,,,5.14,,2013-03-23 12:55:00,
2013-03-23 06:00:00,48.6,41.3,29.98,West,270,0.0,-999.0,75,0.15,,,5.14,,2013-03-23 13:00:00,
2013-03-23 06:06:00,48.7,41.3,29.99,West,270,0.0,-999.0,75,0.15,,,5.14,,2013-03-23 13:06:00,
2013-03-23 06:11:00,48.7,41.0,29.98,West,270,0.0,-999.0,74,0.15,,,5.14,,2013-03-23 13:11:00,
2013-03-23 06:16:00,48.6,40.8,29.98,West,270,0.0,-999.0,74,0.15,,,5.14,,2013-03-23 13:16:00,
2013-03-23 06:21:00,48.0,40.3,29.99,West,270,0.0,-999.0,74,0.15,,,5.14,,2013-03-23 13:21:00,
2013-03-23 06:26:00,48.2,40.2,29.98,West,270,0.0,-999.0,73,0.15,,,5.14,,2013-03-23 13:26:00,
2013-03-23 06:31:00,48.0,39.9,29.99,West,270,0.0,-999.0,73,0.15,,,5.14,,2013-03-23 13:31:00,
2013-03-23 06:36:00,48.0,39.7,29.99,West,270,0.0,-999.0,72,0.15,,,5.14,,2013-03-23 13:36:00,
2013-03-23 06:41:00,48.2,40.0,29.99,West,270,0.0,-999.0,73,0.15,,,5.14,,2013-03-23 13:41:00,
2013-03-23 06:46:00,48.4,40.1,29.98,West,270,0.0,-999.0,72,0.15,,,5.14,,2013-03-23 13:46:00,
2013-03-23 06:51:00,48.6,40.6,29.99,West,270,0.0,-999.0,73,0.15,,,5.14,,2013-03-23 13:51:00,
2013-03-23 06:56:00,48.9,41.0,29.99,West,270,0.0,-999.0,74,0.15,,,5.14,,2013-03-23 13:56:00,
2013-03-23 07:01:00,49.6,42.5,29.98,West,270,0.0,-999.0,76,0.15,,,5.14,,2013-03-23 14:01:00,
2013-03-23 07:07:00,50.2,42.4,29.98,West,270,0.0,-999.0,74,0.15,,,5.14,,2013-03-23 14:07:00,
2013-03-23 07:12:00,50.0,42.5,29.99,West,270,0.0,-999.0,75,0.15,,,5.14,,2013-03-23 14:12:00,
2013-03-23 07:17:00,50.2,41.9,29.99,West,270,0.0,-999.0,73,0.15,,,5.14,,2013-03-23 14:17:00,
2013-03-23 07:22:00,50.4,42.1,29.99,West,270,0.0,-999.0,73,0.15,,,5.14,,2013-03-23 14:22:00,
2013-03-23 07:27:00,50.5,41.8,30.01,West,270,0.0,-999.0,72,0.15,,,5.14,,2013-03-23 14:27:00,
2013-03-23 07:32:00,51.1,42.0,30.00,West,270,0.0,-999.0,71,0.15,,,5.14,,2013-03-23 14:32:00,
2013-03-23 07:37:00,52.0,43.2,30.00,West,270,0.0,-999.0,72,0.15,,,5.14,,2013-03-23 14:37:00,
2013-03-23 07:42:00,59.2,42.1,30.01,West,270,0.0,-999.0,53,0.15,,,5.14,,2013-03-23 14:42:00,
2013-03-23 07:47:00,64.9,42.7,30.01,West,270,0.0,-999.0,44,0.15,,,5.14,,2013-03-23 14:47:00,
2013-03-23 07:53:00,68.4,42.9,30.01,West,270,0.0,-999.0,39,0.15,,,5.14,,2013-03-23 14:53:00,
2013-03-23 07:58:00,62.1,42.4,30.01,West,270,0.0,-999.0,48,0.15,,,5.14,,2013-03-23 14:58:00,
2013-03-23 08:03:00,56.7,42.7,30.01,West,270,0.0,-999.0,59,0.15,,,5.14,,2013-03-23 15:03:00,
2013-03-23 08:08:00,55.8,42.0,30.01,West,270,0.0,-999.0,59,0.15,,,5.14,,2013-03-23 15:08:00,
2013-03-23 08:13:00,55.6,43.5,30.02,West,270,0.0,-999.0,63,0.15,,,5.14,,2013-03-23 15:13:00,
2013-03-23 08:18:00,55.9,44.1,30.02,West,270,0.0,-999.0,64,0.15,,,5.14,,2013-03-23 15:18:00,
2013-03-23 08:23:00,55.9,43.2,30.02,West,270,0.0,-999.0,62,0.15,,,5.14,,2013-03-23 15:23:00,
2013-03-23 08:28:00,55.6,43.3,30.02,West,270,0.0,-999.0,63,0.15,,,5.14,,2013-03-23 15:28:00,
2013-03-23 08:33:00,56.7,44.9,30.03,West,270,0.0,-999.0,64,0.15,,,5.14,,2013-03-23 15:33:00,
2013-03-23 08:38:00,57.0,42.8,30.03,West,270,0.0,-999.0,58,0.15,,,5.14,,2013-03-23 15:38:00,
2013-03-23 08:43:00,57.2,41.3,30.03,West,270,0.0,-999.0,55,0.15,,,5.14,,2013-03-23 15:43:00,
2013-03-23 08:48:00,57.4,41.0,30.03,West,270,0.0,-999.0,54,0.15,,,5.14,,2013-03-23 15:48:00,
2013-03-23 08:53:00,57.9,40.6,30.03,West,270,0.0,-999.0,52,0.15,,,5.14,,2013-03-23 15:53:00,
2013-03-23 08:58:00,57.9,38.2,30.03,West,270,0.0,-999.0,47,0.15,,,5.14,,2013-03-23 15:58:00,
2013-03-23 09:03:00,58.1,37.5,30.03,West,270,0.0,-999.0,46,0.15,,,5.14,,2013-03-23 16:03:00,
2013-03-23 09:08:00,58.3,35.9,30.03,West,270,0.0,-999.0,43,0.15,,,5.14,,2013-03-23 16:08:00,
2013-03-23 09:13:00,58.3,35.3,30.02,West,270,0.0,-999.0,41,0.15,,,5.14,,2013-03-23 16:13:00,
2013-03-23 09:18:00,59.0,36.8,30.02,West,270,0.0,-999.0,43,0.14,,,5.14,,2013-03-23 16:18:00,
2013-03-23 09:24:00,59.0,32.9,30.02,West,270,0.0,-999.0,37,0.14,,,5.14,,2013-03-23 16:24:00,
2013-03-23 09:29:00,58.8,33.2,30.02,West,270,0.0,-999.0,37,0.14,,,5.14,,2013-03-23 16:29:00,
2013-03-23 09:34:00,59.5,32.9,30.02,West,270,0.0,-999.0,36,0.14,,,5.14,,2013-03-23 16:34:00,
2013-03-23 09:39:00,59.7,31.8,30.02,West,270,0.0,-999.0,34,0.14,,,5.14,,2013-03-23 16:39:00,
2013-03-23 09:44:00,61.0,35.3,30.03,West,270,0.0,-999.0,38,0.14,,,5.14,,2013-03-23 16:44:00,
2013-03-23 09:49:00,61.2,34.3,30.03,West,270,0.0,-999.0,36,0.14,,,5.14,,2013-03-23 16:49:00,
2013-03-23 09:54:00,61.2,34.8,30.02,West,270,0.0,-999.0,37,0.14,,,5.14,,2013-03-23 16:54:00,
2013-03-23 09:59:00,60.8,32.4,30.03,West,270,0.0,-999.0,34,0.14,,,5.14,,2013-03-23 16:59:00,
2013-03-23 10:04:00,61.2,33.5,30.02,West,270,0.0,-999.0,35,0.14,,,5.14,,2013-03-23 17:04:00,
2013-03-23 10:09:00,60.6,32.8,30.02,West,270,0.0,-999.0,35,0.14,,,5.14,,2013-03-23 17:09:00,
2013-03-23 10:14:00,60.6,32.5,30.02,West,270,0.0,-999.0,34,0.14,,,5.14,,2013-03-23 17:14:00,
2013-03-23 10:20:00,61.3,31.9,30.03,West,270,0.0,-999.0,32,0.14,,,5.14,,2013-03-23 17:20:00,
2013-03-23 10:24:00,61.3,30.3,30.03,West,270,0.0,-999.0,30,0.14,,,5.14,,2013-03-23 17:24:00,
2013-03-23 10:29:00,61.3,31.2,30.03,West,270,0.0,-999.0,31,0.13,,,5.14,,2013-03-23 17:29:00,
2013-03-23 10:35:00,62.4,32.1,30.03,West,270,0.0,-999.0,31,0.13,,,5.14,,2013-03-23 17:35:00,
2013-03-23 10:40:00,62.1,30.3,30.03,West,270,0.0,-999.0,30,0.14,,,5.15,,2013-03-23 17:40:00,
2013-03-23 10:45:00,62.6,29.8,30.03,West,270,0.0,-999.0,28,0.14,,,5.15,,2013-03-23 17:45:00,
2013-03-23 10:50:00,62.8,35.0,30.03,West,270,0.0,-999.0,35,0.14,,,5.15,,2013-03-23 17:50:00,
2013-03-23 10:55:00,62.2,30.8,30.04,West,270,0.0,-999.0,30,0.14,,,5.15,,2013-03-23 17:55:00,
2013-03-23 11:00:00,62.8,35.9,30.03,West,270,0.0,-999.0,36,0.14,,,5.15,,2013-03-23 18:00:00,
2013-03-23 11:05:00,63.0,36.1,30.02,West,270,0.0,-999.0,36,0.14,,,5.15,,2013-03-23 18:05:00,
2013-03-23 11:10:00,63.1,32.0,30.03,West,270,0.0,-999.0,31,0.14,,,5.15,,2013-03-23 18:10:00,
2013-03-23 11:15:00,63.1,30.7,30.03,West,270,0.0,-999.0,29,0.14,,,5.15,,2013-03-23 18:15:00,
2013-03-23 11:20:00,64.4,31.4,30.02,West,270,0.0,-999.0,28,0.14,,,5.15,,2013-03-23 18:20:00,
2013-03-23 11:25:00,63.7,28.4,30.03,West,270,0.0,-999.0,26,0.14,,,5.15,,2013-03-23 18:25:00,
2013-03-23 11:31:00,63.5,29.9,30.02,West,270,0.0,-999.0,28,0.14,,,5.15,,2013-03-23 18:31:00,
2013-03-23 11:36:00,65.8,31.6,30.02,West,270,0.0,-999.0,27,0.14,,,5.15,,2013-03-23 18:36:00,
2013-03-23 11:41:00,64.8,30.3,30.02,West,270,0.0,-999.0,27,0.14,,,5.15,,2013-03-23 18:41:00,
2013-03-23 11:46:00,65.5,31.3,30.02,West,270,0.0,-999.0,27,0.14,,,5.15,,2013-03-23 18:46:00,
2013-03-23 11:51:00,64.4,30.1,30.02,West,270,0.0,-999.0,27,0.14,,,5.15,,2013-03-23 18:51:00,
2013-03-23 11:56:00,65.1,31.6,30.02,West,270,0.0,-999.0,28,0.14,,,5.15,,2013-03-23 18:56:00,
2013-03-23 12:02:00,65.8,32.1,30.02,West,270,0.0,-999.0,28,0.14,,,5.15,,2013-03-23 19:02:00,
2013-03-23 12:07:00,65.3,29.5,30.01,West,270,0.0,-999.0,25,0.14,,,5.15,,2013-03-23 19:07:00,
2013-03-23 12:12:00,65.5,30.1,30.00,West,270,0.0,-999.0,26,0.14,,,5.15,,2013-03-23 19:12:00,
2013-03-23 12:17:00,65.3,29.4,30.01,West,270,0.0,-999.0,25,0.14,,,5.15,,2013-03-23 19:17:00,
2013-03-23 12:22:00,66.6,31.8,30.01,West,270,0.0,-999.0,27,0.14,,,5.15,,2013-03-23 19:22:00,
2013-03-23 12:27:00,66.4,29.7,30.01,West,270,0.0,-999.0,25,0.14,,,5.15,,2013-03-23 19:27:00,
2013-03-23 12:32:00,66.7,33.0,30.00,West,270,0.0,-999.0,28,0.14,,,5.15,,2013-03-23 19:32:00,
2013-03-23 12:37:00,67.5,30.8,30.00,West,270,0.0,-999.0,25,0.14,,,5.15,,2013-03-23 19:37:00,
2013-03-23 12:42:00,69.4,32.4,30.00,West,270,0.0,-999.0,25,0.14,,,5.15,,2013-03-23 19:42:00,
2013-03-23 12:47:00,68.5,29.1,29.98,West,270,0.0,-999.0,22,0.14,,,5.15,,2013-03-23 19:47:00,
2013-03-23 12:52:00,73.8,33.7,30.00,West,270,0.0,-999.0,23,0.14,,,5.15,,2013-03-23 19:52:00,
2013-03-23 12:57:00,72.0,32.7,30.00,West,270,0.0,-999.0,23,0.14,,,5.15,,2013-03-23 19:57:00,
2013-03-23 13:02:00,70.2,31.7,29.99,West,270,0.0,-999.0,24,0.14,,,5.15,,2013-03-23 20:02:00,
2013-03-23 13:07:00,70.9,31.5,30.00,West,270,0.0,-999.0,23,0.14,,,5.15,,2013-03-23 20:07:00,
2013-03-23 13:12:00,69.6,31.4,29.99,West,270,0.0,-999.0,24,0.14,,,5.15,,2013-03-23 20:12:00,
2013-03-23 13:18:00,69.3,33.8,29.98,West,270,0.0,-999.0,26,0.14,,,5.15,,2013-03-23 20:18:00,
2013-03-23 13:23:00,69.6,30.1,29.99,West,270,0.0,-999.0,22,0.14,,,5.15,,2013-03-23 20:23:00,
2013-03-23 13:28:00,69.3,32.2,29.98,West,270,0.0,-999.0,25,0.14,,,5.15,,2013-03-23 20:28:00,
2013-03-23 13:33:00,69.6,31.1,29.98,West,270,0.0,-999.0,23,0.14,,,5.15,,2013-03-23 20:33:00,
2013-03-23 13:38:00,69.8,31.5,29.98,West,270,0.0,-999.0,24,0.14,,,5.15,,2013-03-23 20:38:00,
2013-03-23 13:43:00,69.1,30.4,29.98,West,270,0.0,-999.0,23,0.14,,,5.15,,2013-03-23 20:43:00,
2013-03-23 13:48:00,69.6,33.3,29.97,West,270,0.0,-999.0,26,0.14,,,5.15,,2013-03-23 20:48:00,
2013-03-23 13:53:00,69.6,31.4,29.97,West,270,0.0,-999.0,24,0.14,,,5.15,,2013-03-23 20:53:00,
2013-03-23 13:58:00,69.4,31.5,29.97,West,270,0.0,-999.0,24,0.14,,,5.15,,2013-03-23 20:58:00,
2013-03-23 14:03:00,69.6,30.8,29.97,West,270,0.0,-999.0,23,0.14,,,5.15,,2013-03-23 21:03:00,
2013-03-23 14:08:00,70.0,32.6,29.97,West,270,0.0,-999.0,25,0.14,,,5.15,,2013-03-23 21:08:00,
2013-03-23 14:13:00,70.9,36.0,29.98,West,270,0.0,-999.0,27,0.14,,,5.15,,2013-03-23 21:13:00,
2013-03-23 14:18:00,70.3,38.5,29.97,West,270,0.0,-999.0,31,0.14,,,5.15,,2013-03-23 21:18:00,
2013-03-23 14:23:00,68.7,39.4,29.97,West,270,0.0,-999.0,34,0.14,,,5.15,,2013-03-23 21:23:00,
2013-03-23 14:29:00,68.4,39.6,29.98,West,270,0.0,-999.0,34,0.14,,,5.15,,2013-03-23 21:29:00,
2013-03-23 14:34:00,67.6,39.2,29.98,West,270,0.0,-999.0,35,0.14,,,5.15,,2013-03-23 21:34:00,
2013-03-23 14:39:00,67.3,40.3,29.97,West,270,0.0,-999.0,37,0.14,,,5.15,,2013-03-23 21:39:00,
2013-03-23 14:44:00,67.3,39.9,29.97,West,270,0.0,-999.0,36,0.14,,,5.15,,2013-03-23 21:44:00,
2013-03-23 14:49:00,66.6,38.7,29.97,West,270,0.0,-999.0,35,0.14,,,5.15,,2013-03-23 21:49:00,
2013-03-23 14:54:00,66.9,39.6,29.97,West,270,0.0,-999.0,36,0.14,,,5.15,,2013-03-23 21:54:00,
2013-03-23 14:59:00,67.5,40.1,29.97,West,270,0.0,-999.0,36,0.14,,,5.15,,2013-03-23 21:59:00,
2013-03-23 15:04:00,66.9,40.0,29.97,West,270,0.0,-999.0,37,0.14,,,5.15,,2013-03-23 22:04:00,
2013-03-23 15:09:00,66.7,40.7,29.96,West,270,0.0,-999.0,38,0.14,,,5.15,,2013-03-23 22:09:00,
2013-03-23 15:14:00,66.0,39.4,29.96,West,270,0.0,-999.0,37,0.14,,,5.15,,2013-03-23 22:14:00,
2013-03-23 15:19:00,66.2,39.7,29.97,West,270,0.0,-999.0,37,0.14,,,5.15,,2013-03-23 22:19:00,
2013-03-23 15:24:00,66.2,39.8,29.96,West,270,0.0,-999.0,37,0.14,,,5.15,,2013-03-23 22:24:00,
2013-03-23 15:29:00,66.0,39.5,29.96,West,270,0.0,-999.0,37,0.14,,,5.15,,2013-03-23 22:29:00,
2013-03-23 15:34:00,65.8,38.7,29.96,West,270,0.0,-999.0,36,0.14,,,5.15,,2013-03-23 22:34:00,
2013-03-23 15:39:00,65.5,38.7,29.97,West,270,0.0,-999.0,37,0.14,,,5.15,,2013-03-23 22:39:00,
2013-03-23 15:44:00,65.3,39.7,29.96,West,270,0.0,-999.0,39,0.14,,,5.15,,2013-03-23 22:44:00,
2013-03-23 15:49:00,65.1,39.4,29.96,West,270,0.0,-999.0,38,0.14,,,5.15,,2013-03-23 22:49:00,
2013-03-23 15:54:00,65.7,38.6,29.96,West,270,0.0,-999.0,36,0.14,,,5.15,,2013-03-23 22:54:00,
2013-03-23 15:59:00,65.7,40.0,29.96,West,270,0.0,-999.0,39,0.14,,,5.15,,2013-03-23 22:59:00,
2013-03-23 16:04:00,65.3,39.3,29.96,West,270,0.0,-999.0,38,0.14,,,5.15,,2013-03-23 23:04:00,
2013-03-23 16:10:00,66.4,40.7,29.95,West,270,0.0,-999.0,39,0.14,,,5.15,,2013-03-23 23:10:00,
2013-03-23 16:14:00,66.0,40.0,29.96,West,270,0.0,-999.0,38,0.14,,,5.15,,2013-03-23 23:14:00,
2013-03-23 16:20:00,65.1,39.2,29.96,West,270,0.0,-999.0,38,0.14,,,5.15,,2013-03-23 23:20:00,
2013-03-23 16:25:00,65.5,39.1,29.96,West,270,0.0,-999.0,37,0.14,,,5.15,,2013-03-23 23:25:00,
2013-03-23 16:30:00,65.3,39.1,29.96,West,270,0.0,-999.0,38,0.14,,,5.15,,2013-03-23 23:30:00,
2013-03-23 16:35:00,65.7,39.8,29.96,West,270,0.0,-999.0,38,0.14,,,5.15,,2013-03-23 23:35:00,
2013-03-23 16:40:00,65.7,39.5,29.96,West,270,0.0,-999.0,38,0.14,,,5.15,,2013-03-23 23:40:00,
2013-03-23 16:45:00,65.8,40.3,29.96,West,270,0.0,-999.0,39,0.14,,,5.15,,2013-03-23 23:45:00,
2013-03-23 16:50:00,66.4,38.2,29.95,West,270,0.0,-999.0,35,0.14,,,5.15,,2013-03-23 23:50:00,
2013-03-23 16:55:00,66.2,37.6,29.95,West,270,0.0,-999.0,34,0.14,,,5.15,,2013-03-23 23:55:00,
2013-03-23 17:00:00,66.2,37.8,29.95,West,270,0.0,-999.0,35,0.14,,,5.15,,2013-03-24 00:00:00,
2013-03-23 17:05:00,66.4,37.6,29.95,West,270,0.0,-999.0,34,0.14,,,5.15,,2013-03-24 00:05:00,
2013-03-23 17:10:00,66.0,37.5,29.95,West,270,0.0,-999.0,34,0.14,,,5.15,,2013-03-24 00:10:00,
2013-03-23 17:16:00,66.2,36.8,29.94,West,270,0.0,-999.0,33,0.14,,,5.15,,2013-03-24 00:16:00,
2013-03-23 17:21:00,66.4,36.4,29.95,West,270,0.0,-999.0,32,0.14,,,5.15,,2013-03-24 00:21:00,
2013-03-23 17:26:00,66.4,36.4,29.94,West,270,0.0,-999.0,32,0.14,,,5.15,,2013-03-24 00:26:00,
2013-03-23 17:31:00,67.3,40.8,29.95,West,270,0.0,-999.0,37,0.14,,,5.15,,2013-03-24 00:31:00,
2013-03-23 17:36:00,67.1,37.9,29.94,West,270,0.0,-999.0,34,0.14,,,5.15,,2013-03-24 00:36:00,
2013-03-23 17:41:00,65.5,38.1,29.95,West,270,0.0,-999.0,36,0.14,,,5.15,,2013-03-24 00:41:00,
2013-03-23 17:46:00,65.8,40.2,29.95,West,270,0.0,-999.0,39,0.14,,,5.15,,2013-03-24 00:46:00,
2013-03-23 17:51:00,64.6,39.7,29.95,West,270,0.0,-999.0,39,0.14,,,5.15,,2013-03-24 00:51:00,
2013-03-23 17:56:00,64.0,39.9,29.95,West,270,0.0,-999.0,41,0.14,,,5.15,,2013-03-24 00:56:00,
2013-03-23 18:01:00,63.9,38.8,29.95,West,270,0.0,-999.0,39,0.14,,,5.15,,2013-03-24 01:01:00,
2013-03-23 18:06:00,63.5,39.6,29.95,West,270,0.0,-999.0,41,0.14,,,5.15,,2013-03-24 01:06:00,
2013-03-23 18:11:00,63.3,39.4,29.94,West,270,0.0,-999.0,41,0.14,,,5.15,,2013-03-24 01:11:00,
2013-03-23 18:17:00,63.0,40.7,29.95,West,270,0.0,-999.0,44,0.14,,,5.15,,2013-03-24 01:17:00,
2013-03-23 18:22:00,62.1,40.0,29.95,West,270,0.0,-999.0,44,0.14,,,5.15,,2013-03-24 01:22:00,
2013-03-23 18:27:00,61.7,40.2,29.95,West,270,0.0,-999.0,45,0.14,,,5.15,,2013-03-24 01:27:00,
2013-03-23 18:32:00,61.9,38.8,29.95,West,270,0.0,-999.0,42,0.14,,,5.15,,2013-03-24 01:32:00,
2013-03-23 18:37:00,61.9,39.6,29.95,West,270,0.0,-999.0,43,0.14,,,5.15,,2013-03-24 01:37:00,
2013-03-23 18:42:00,61.9,40.1,29.95,West,270,0.0,-999.0,44,0.14,,,5.15,,2013-03-24 01:42:00,
2013-03-23 18:47:00,60.6,40.1,29.95,West,270,0.0,-999.0,46,0.14,,,5.15,,2013-03-24 01:47:00,
2013-03-23 18:52:00,60.3,41.3,29.96,West,270,0.0,-999.0,49,0.14,,,5.15,,2013-03-24 01:52:00,
2013-03-23 18:57:00,59.7,40.4,29.95,West,270,0.0,-999.0,48,0.14,,,5.15,,2013-03-24 01:57:00,
2013-03-23 19:02:00,57.7,41.1,29.96,West,270,0.0,-999.0,53,0.14,,,5.15,,2013-03-24 02:02:00,
2013-03-23 19:07:00,57.2,42.6,29.96,West,270,0.0,-999.0,58,0.14,,,5.15,,2013-03-24 02:07:00,
2013-03-23 19:12:00,56.7,41.1,29.96,West,270,0.0,-999.0,55,0.14,,,5.15,,2013-03-24 02:12:00,
2013-03-23 19:17:00,55.9,40.3,29.96,West,270,0.0,-999.0,55,0.14,,,5.15,,2013-03-24 02:17:00,
2013-03-23 19:22:00,55.0,42.1,29.96,West,270,0.0,-999.0,61,0.14,,,5.15,,2013-03-24 02:22:00,
2013-03-23 19:27:00,54.7,41.8,29.96,West,270,0.0,-999.0,61,0.14,,,5.15,,2013-03-24 02:27:00,
2013-03-23 19:32:00,55.6,42.7,29.95,West,270,0.0,-999.0,61,0.14,,,5.15,,2013-03-24 02:32:00,
2013-03-23 19:37:00,56.8,43.4,29.95,West,270,0.0,-999.0,60,0.14,,,5.15,,2013-03-24 02:37:00,
2013-03-23 19:42:00,56.8,43.1,29.95,West,270,0.0,-999.0,60,0.14,,,5.15,,2013-03-24 02:42:00,
2013-03-23 19:47:00,56.5,44.2,29.95,West,270,0.0,-999.0,63,0.14,,,5.15,,2013-03-24 02:47:00,
2013-03-23 19:53:00,54.9,44.4,29.95,West,270,0.0,-999.0,67,0.14,,,5.15,,2013-03-24 02:53:00,
2013-03-23 19:58:00,53.6,43.7,29.95,West,270,0.0,-999.0,69,0.14,,,5.15,,2013-03-24 02:58:00,
2013-03-23 20:03:00,53.6,43.9,29.95,West,270,0.0,-999.0,69,0.14,,,5.15,,2013-03-24 03:03:00,
2013-03-23 20:08:00,54.3,44.5,29.96,West,270,0.0,-999.0,69,0.14,,,5.15,,2013-03-24 03:08:00,
2013-03-23 20:13:00,54.7,44.1,29.95,West,270,0.0,-999.0,67,0.14,,,5.15,,2013-03-24 03:13:00,
2013-03-23 20:18:00,54.7,44.1,29.96,West,270,0.0,-999.0,67,0.14,,,5.15,,2013-03-24 03:18:00,
2013-03-23 20:23:00,55.0,44.4,29.97,West,270,0.0,-999.0,67,0.14,,,5.15,,2013-03-24 03:23:00,
2013-03-23 20:28:00,55.4,45.4,29.96,West,270,0.0,-999.0,69,0.14,,,5.15,,2013-03-24 03:28:00,
2013-03-23 20:33:00,55.9,45.8,29.96,West,270,0.0,-999.0,68,0.14,,,5.15,,2013-03-24 03:33:00,
2013-03-23 20:38:00,55.4,45.4,29.96,West,270,0.0,-999.0,69,0.14,,,5.15,,2013-03-24 03:38:00,
2013-03-23 20:43:00,55.4,45.5,29.97,West,270,0.0,-999.0,69,0.14,,,5.15,,2013-03-24 03:43:00,
2013-03-23 20:49:00,55.4,46.0,29.97,West,270,0.0,-999.0,70,0.14,,,5.15,,2013-03-24 03:49:00,
2013-03-23 20:54:00,54.7,45.5,29.96,West,270,0.0,-999.0,71,0.14,,,5.15,,2013-03-24 03:54:00,
2013-03-23 20:59:00,55.0,45.6,29.97,West,270,0.0,-999.0,70,0.14,,,5.15,,2013-03-24 03:59:00,
2013-03-23 21:00:00,55.0,45.3,29.97,West,270,0.0,-999.0,69,0.14,,,5.15,,2013-03-24 04:00:00,
2013-03-23 21:01:00,55.0,45.4,29.97,West,270,0.0,-999.0,70,0.14,,,5.15,,2013-03-24 04:01:00,
2013-03-23 21:07:00,55.0,45.6,29.97,West,270,0.0,-999.0,70,0.14,,,5.15,,2013-03-24 04:07:00,
2013-03-23 21:12:00,55.6,46.0,29.97,West,270,0.0,-999.0,70,0.14,,,5.15,,2013-03-24 04:12:00,
2013-03-23 21:17:00,55.2,45.6,29.97,West,270,0.0,-999.0,70,0.14,,,5.15,,2013-03-24 04:17:00,
2013-03-23 21:22:00,55.0,45.6,29.97,West,270,0.0,-999.0,70,0.14,,,5.15,,2013-03-24 04:22:00,
2013-03-23 21:27:00,55.4,45.5,29.97,West,270,0.0,-999.0,69,0.14,,,5.15,,2013-03-24 04:27:00,
2013-03-23 21:32:00,54.5,45.6,29.97,West,270,0.0,-999.0,71,0.14,,,5.15,,2013-03-24 04:32:00,
2013-03-23 21:37:00,55.0,45.8,29.98,West,270,0.0,-999.0,71,0.14,,,5.15,,2013-03-24 04:37:00,
2013-03-23 21:42:00,54.3,45.5,29.97,West,270,0.0,-999.0,72,0.14,,,5.15,,2013-03-24 04:42:00,
2013-03-23 21:47:00,53.4,45.2,29.97,West,270,0.0,-999.0,73,0.14,,,5.15,,2013-03-24 04:47:00,
2013-03-23 21:52:00,52.9,45.5,29.97,West,270,0.0,-999.0,75,0.13,,,5.15,,2013-03-24 04:52:00,
2013-03-23 21:57:00,53.6,45.6,29.97,West,270,0.0,-999.0,74,0.13,,,5.15,,2013-03-24 04:57:00,
2013-03-23 22:02:00,54.1,45.7,29.98,West,270,0.0,-999.0,73,0.13,,,5.15,,2013-03-24 05:02:00,
2013-03-23 22:07:00,53.2,44.9,29.97,West,270,0.0,-999.0,73,0.13,,,5.15,,2013-03-24 05:07:00,
2013-03-23 22:12:00,53.2,45.5,29.97,West,270,0.0,-999.0,75,0.14,,,5.16,,2013-03-24 05:12:00,
2013-03-23 22:17:00,53.2,45.7,29.98,West,270,0.0,-999.0,75,0.14,,,5.16,,2013-03-24 05:17:00,
2013-03-23 22:22:00,53.8,45.9,29.98,West,270,0.0,-999.0,74,0.14,,,5.16,,2013-03-24 05:22:00,
2013-03-23 22:28:00,53.8,45.5,29.97,West,270,0.0,-999.0,73,0.14,,,5.16,,2013-03-24 05:28:00,
2013-03-23 22:33:00,52.2,45.1,29.98,West,270,0.0,-999.0,76,0.14,,,5.16,,2013-03-24 05:33:00,
2013-03-23 22:38:00,52.5,46.2,29.98,West,270,0.0,-999.0,79,0.14,,,5.16,,2013-03-24 05:38:00,
2013-03-23 22:43:00,53.2,46.1,29.98,West,270,0.0,-999.0,76,0.14,,,5.16,,2013-03-24 05:43:00,
2013-03-23 22:48:00,53.8,46.2,29.98,West,270,0.0,-999.0,75,0.14,,,5.16,,2013-03-24 05:48:00,
2013-03-23 22:53:00,53.6,46.1,29.97,West,270,0.0,-999.0,75,0.14,,,5.16,,2013-03-24 05:53:00,
2013-03-23 22:58:00,53.2,45.8,29.98,West,270,0.0,-999.0,75,0.14,,,5.16,,2013-03-24 05:58:00,
2013-03-23 23:03:00,53.1,45.9,29.98,West,270,0.0,-999.0,76,0.14,,,5.16,,2013-03-24 06:03:00,
2013-03-23 23:08:00,53.6,46.0,29.98,West,270,0.0,-999.0,75,0.14,,,5.16,,2013-03-24 06:08:00,
2013-03-23 23:13:00,54.0,46.0,29.98,West,270,0.0,-999.0,74,0.14,,,5.16,,2013-03-24 06:13:00,
2013-03-23 23:18:00,54.1,46.1,29.98,West,270,0.0,-999.0,74,0.14,,,5.16,,2013-03-24 06:18:00,
2013-03-23 23:23:00,53.8,46.3,29.97,West,270,0.0,-999.0,75,0.14,,,5.16,,2013-03-24 06:23:00,
2013-03-23 23:28:00,53.4,45.9,29.98,West,270,0.0,-999.0,75,0.14,,,5.16,,2013-03-24 06:28:00,
2013-03-23 23:33:00,53.6,46.0,29.98,West,270,0.0,-999.0,75,0.14,,,5.16,,2013-03-24 06:33:00,
2013-03-23 23:38:00,53.8,46.2,29.98,West,270,0.0,-999.0,75,0.14,,,5.16,,2013-03-24 06:38:00,
2013-03-23 23:44:00,53.2,45.7,29.98,West,270,0.0,-999.0,75,0.14,,,5.16,,2013-03-24 06:44:00,
2013-03-23 23:49:00,52.9,45.9,29.97,West,270,0.0,-999.0,77,0.14,,,5.16,,2013-03-24 06:49:00,
2013-03-23 23:54:00,52.5,45.9,29.98,West,270,0.0,-999.0,78,0.14,,,5.16,,2013-03-24 06:54:00,
2013-03-23 23:59:00,52.9,46.1,29.97,West,270,0.0,-999.0,77,0.14,,,5.16,,2013-03-24 06:59:00,